TimeEDT,TemperatureF,Dew PointF,Humidity,Sea Level PressureIn,VisibilityMPH,Wind Direction,Wind SpeedMPH,Gust SpeedMPH,PrecipitationIn,Events,Conditions,WindDirDegrees,DateUTC
12:15 AM,60.8,57.2,88,29.75,10.0,NE,5.8,16.1,0.01,,Overcast,40,2012-10-28 04:15:00
12:35 AM,60.8,57.2,88,29.75,5.0,NNE,5.8,-,0.02,,Overcast,20,2012-10-28 04:35:00
12:55 AM,60.8,57.2,88,29.74,4.0,NNE,10.4,17.3,0.05,,Overcast,20,2012-10-28 04:55:00
1:15 AM,60.8,57.2,88,29.73,7.0,NNE,9.2,17.3,0.01,,Overcast,30,2012-10-28 05:15:00
2:15 AM,59.0,57.2,94,29.71,7.0,NNE,6.9,16.1,N/A,,Overcast,30,2012-10-28 06:15:00
2:35 AM,59.0,57.2,94,29.72,7.0,NNE,5.8,19.6,0.01,,Overcast,20,2012-10-28 06:35:00
2:55 AM,59.0,57.2,94,29.72,10.0,NNE,8.1,-,0.02,,Overcast,30,2012-10-28 06:55:00
3:15 AM,59.0,57.2,94,29.70,7.0,NNE,9.2,19.6,0.01,,Overcast,20,2012-10-28 07:15:00
3:35 AM,59.0,57.2,94,29.69,7.0,NNE,10.4,17.3,0.02,,Overcast,30,2012-10-28 07:35:00
3:55 AM,59.0,57.2,94,29.67,7.0,NNE,12.7,20.7,0.03,,Overcast,30,2012-10-28 07:55:00
4:15 AM,59.0,57.2,94,29.66,7.0,NNE,10.4,26.5,0.01,,Overcast,20,2012-10-28 08:15:00
4:35 AM,59.0,57.2,94,29.66,7.0,North,11.5,18.4,0.02,,Overcast,10,2012-10-28 08:35:00
4:55 AM,59.0,57.2,94,29.66,7.0,North,8.1,19.6,0.02,,Overcast,360,2012-10-28 08:55:00
5:15 AM,59.0,57.2,94,29.67,5.0,North,9.2,-,0.01,,Overcast,10,2012-10-28 09:15:00
5:35 AM,57.2,57.2,100,29.67,4.0,North,9.2,-,0.03,,Overcast,360,2012-10-28 09:35:00
5:55 AM,57.2,57.2,100,29.66,3.0,NNE,8.1,20.7,0.08,,Overcast,20,2012-10-28 09:55:00
6:15 AM,57.2,57.2,100,29.66,4.0,NNE,10.4,18.4,0.02,,Overcast,30,2012-10-28 10:15:00
6:35 AM,57.2,55.4,94,29.64,5.0,NNE,8.1,24.2,0.04,,Overcast,20,2012-10-28 10:35:00
6:55 AM,57.2,55.4,94,29.64,3.0,NNE,9.2,23.0,0.07,,Overcast,30,2012-10-28 10:55:00
7:15 AM,57.2,57.2,100,29.64,2.5,NNE,10.4,19.6,0.07,,Overcast,30,2012-10-28 11:15:00
7:35 AM,57.2,55.4,94,29.63,2.5,NE,10.4,19.6,0.14,,Overcast,40,2012-10-28 11:35:00
7:55 AM,57.2,55.4,94,29.64,5.0,NNE,11.5,24.2,0.18,,Overcast,30,2012-10-28 11:55:00
8:15 AM,57.2,55.4,94,29.64,5.0,NNE,12.7,25.3,0.04,,Overcast,20,2012-10-28 12:15:00
8:35 AM,57.2,55.4,94,29.65,3.0,NNE,11.5,21.9,0.07,,Overcast,30,2012-10-28 12:35:00
8:55 AM,57.2,55.4,94,29.66,5.0,NNE,12.7,24.2,0.09,,Overcast,20,2012-10-28 12:55:00
9:15 AM,57.2,55.4,94,29.65,3.0,NNE,10.4,24.2,0.01,,Overcast,30,2012-10-28 13:15:00
9:35 AM,55.4,53.6,94,29.65,2.5,North,9.2,20.7,0.04,,Overcast,10,2012-10-28 13:35:00
9:55 AM,55.4,53.6,94,29.65,4.0,North,9.2,21.9,0.07,,Overcast,10,2012-10-28 13:55:00
10:15 AM,55.4,53.6,94,29.64,2.5,NNE,6.9,18.4,0.02,,Overcast,20,2012-10-28 14:15:00
10:35 AM,55.4,53.6,94,29.63,2.0,NNE,9.2,-,0.07,,Overcast,20,2012-10-28 14:35:00
10:55 AM,55.4,53.6,94,29.62,2.5,NNE,8.1,-,0.11,,Overcast,20,2012-10-28 14:55:00
11:15 AM,55.4,55.4,100,29.61,3.0,NNE,6.9,17.3,0.03,,Overcast,20,2012-10-28 15:15:00
11:35 AM,55.4,55.4,100,29.61,2.5,North,11.5,20.7,0.07,,Overcast,10,2012-10-28 15:35:00
11:55 AM,57.2,55.4,94,29.61,2.0,NNE,9.2,18.4,0.11,,Overcast,20,2012-10-28 15:55:00
12:15 PM,57.2,55.4,94,29.60,2.0,NNE,9.2,-,0.04,,Overcast,20,2012-10-28 16:15:00
12:35 PM,55.4,55.4,100,29.59,2.5,NNE,8.1,18.4,0.09,,Overcast,20,2012-10-28 16:35:00
1:15 PM,55.4,53.6,94,29.57,3.0,North,9.2,21.9,0.02,,Overcast,10,2012-10-28 17:15:00
1:35 PM,55.4,53.6,94,29.56,3.0,NNE,6.9,18.4,0.04,,Overcast,30,2012-10-28 17:35:00
1:55 PM,55.4,53.6,94,29.55,3.0,NNE,6.9,20.7,0.07,,Overcast,20,2012-10-28 17:55:00
2:15 PM,55.4,53.6,94,29.55,3.0,North,9.2,-,0.02,,Overcast,10,2012-10-28 18:15:00
2:35 PM,55.4,55.4,100,29.54,2.5,NNE,8.1,-,0.04,,Overcast,20,2012-10-28 18:35:00
2:55 PM,55.4,55.4,100,29.53,3.0,North,9.2,17.3,0.07,,Overcast,10,2012-10-28 18:55:00
3:15 PM,57.2,55.4,94,29.53,3.0,North,9.2,16.1,0.03,,Overcast,10,2012-10-28 19:15:00
3:35 PM,57.2,55.4,94,29.54,3.0,North,9.2,-,0.06,,Overcast,360,2012-10-28 19:35:00
3:55 PM,57.2,55.4,94,29.53,3.0,North,8.1,-,0.08,,Overcast,10,2012-10-28 19:55:00
4:15 PM,57.2,55.4,94,29.53,2.5,North,6.9,-,0.04,,Overcast,360,2012-10-28 20:15:00
4:35 PM,57.2,55.4,94,29.51,2.0,NNE,9.2,-,0.09,,Overcast,20,2012-10-28 20:35:00
4:55 PM,57.2,57.2,100,29.51,4.0,NNE,6.9,-,0.11,,Overcast,20,2012-10-28 20:55:00
5:15 PM,59.0,57.2,94,29.53,4.0,NNW,9.2,18.4,N/A,,Overcast,330,2012-10-28 21:15:00
5:35 PM,57.2,55.4,94,29.52,2.0,North,8.1,16.1,0.04,,Overcast,10,2012-10-28 21:35:00
5:55 PM,57.2,55.4,94,29.52,4.0,North,8.1,16.1,0.08,,Overcast,10,2012-10-28 21:55:00
6:15 PM,57.2,55.4,94,29.52,4.0,North,9.2,-,0.03,,Overcast,360,2012-10-28 22:15:00
6:35 PM,57.2,55.4,94,29.51,4.0,North,9.2,17.3,0.06,,Overcast,360,2012-10-28 22:35:00
6:55 PM,57.2,55.4,94,29.52,4.0,North,10.4,17.3,0.09,,Overcast,350,2012-10-28 22:55:00
7:15 PM,57.2,55.4,94,29.52,7.0,North,6.9,-,0.02,,Overcast,350,2012-10-28 23:15:00
7:35 PM,57.2,55.4,94,29.51,5.0,North,6.9,-,0.04,,Overcast,350,2012-10-28 23:35:00
7:55 PM,57.2,55.4,94,29.51,7.0,North,8.1,-,0.06,,Overcast,360,2012-10-28 23:55:00
8:15 PM,57.2,55.4,94,29.51,5.0,NNW,9.2,-,0.02,,Overcast,340,2012-10-29 00:15:00
8:35 PM,57.2,55.4,94,29.50,5.0,NNW,10.4,-,0.04,,Overcast,330,2012-10-29 00:35:00
8:55 PM,55.4,55.4,100,29.50,5.0,NNW,8.1,-,0.06,,Overcast,340,2012-10-29 00:55:00
9:15 PM,57.2,55.4,94,29.50,7.0,North,9.2,17.3,0.02,,Overcast,360,2012-10-29 01:15:00
9:35 PM,57.2,57.2,100,29.49,7.0,North,8.1,17.3,0.03,,Overcast,360,2012-10-29 01:35:00
9:55 PM,57.2,57.2,100,29.49,5.0,North,10.4,19.6,0.05,,Overcast,10,2012-10-29 01:55:00
10:15 PM,57.2,55.4,94,29.48,5.0,North,10.4,24.2,0.01,,Overcast,10,2012-10-29 02:15:00
10:35 PM,57.2,55.4,94,29.48,7.0,NNE,9.2,-,0.03,,Overcast,20,2012-10-29 02:35:00
10:55 PM,57.2,55.4,94,29.48,5.0,NNE,6.9,21.9,0.04,,Overcast,20,2012-10-29 02:55:00
11:35 PM,57.2,55.4,94,29.45,5.0,NNE,9.2,24.2,0.04,,Overcast,20,2012-10-29 03:35:00
11:55 PM,57.2,55.4,94,29.44,5.0,NNE,11.5,23.0,0.05,,Overcast,30,2012-10-29 03:55:00